Starlink 3243

operational
NORAD ID: 51116 Int'l Des: 2022-005 Owner: SPXS Country: US Constellation: starlink
LEOCIRCULAR

关于 Starlink 3243

正在加载描述...

实时位置

正在加载3D地球...

即将过境

高度历史

Altitude vs Time

uPlot chart will show altitude changes over time

两行轨道根数

1 51116U 22005N 25352.28359686 -.00000200 00000-0 55397-5 0 9994
2 51116 53.2180 294.5399 0001355 90.5064 269.6084 15.08836120216585
Epoch: Dec 18, 2025 • Age: 8 hours

当前状态

高度 539.7 km
速度 7.60 km/s
星下点 14.08°N, 6.18°W
发射日期 Jan 19, 2022
运行时间 3.9 years
类型 internet

技术详情

分类 Payload
质量 297.00 kg
干质量 275.00 kg
总质量 297.00 kg
长度 0.20 m
直径 2.80 m
跨度 9.00 m
形状 Box + pan
制造商 SPXS
平台类型 Starlink
阶段状态 In Orbit
所有者/国家 SPXS/US

大型星座

Loading constellations...